Tracking 19717 objects as of 24-Jun-2019
HD Live streaming from Space Station
objects crossing your sky now

THORAD AGENA D DEB


THORAD AGENA D DEB is no longer on orbit


NORAD ID: 5266
Int'l Code: 1970-025KJ
Perigee: N/A
Apogee: N/A
Inclination: N/A
Period: N/A
Semi major axis: N/A
RCS: N/A
Launch date: April 8, 1970
Source: United States (US)
Launch site: AIR FORCE WESTERN TEST RANGE (AFWTR)
Decay date: 2011-10-21

Note: This is SATELLITE DEBRIS
aabbcc
Your satellite tracking list
Your tracking list is empty




NASA's NSSDC Master Catalog

Two Line Element Set (TLE):
1 05266U 70025KJ  11294.23929597  .30711544  39169-5  20287-1 0  9994
2 05266 099.6649 310.0109 0009592 219.6410 140.5387 16.16965360143779
Source of the keplerian elements: AFSPC